Погода в Читрале

Пакистан     35°51′03″N   71°46′55″E
темп.,
°C
ветер,
м/с
пор.,
м/с
влажн.,
%
обл.,
%
осадки,
мм/ч
давл.,
гПа
погр.,
м
9 мая, вс
вс923:00+10зсз22485 0.3 101532
02:00+9сз22490 0.0 101527
05:00+8сз33512 0.0 101632
08:00+10с344110 0.0 1017492
11:00+14ссв11292 0.0 10151308
14:00+17юв11245 0.0 10122179
17:00+17ю22233 0.1 10092294
20:00+13юз22455 0.0 101188
10 мая, пн
пн1023:00+11зсз21485 0.1 101326
02:00+10зсз114938 0.1 101216
05:00+9ссз224658 0.1 101314
08:00+13ссв12355 0.0 1013551
11:00+16ююв123052 0.0 10111648
14:00+18ю332738 0.1 10082340
17:00+15з334496 0.5 1008602
20:00+12ююз6763100 1.6 1012478
11 мая, вт
вт1123:00+10юв0069100 3.9 1014205
02:00+10вюв0064100 0.1 1012122
05:00+9ссз116558 0.1 101110
08:00+12ю1149100 0.0 1012545
11:00+15ю3443100 0.5 10101584
14:00+12юз3358100 2.3 1008905
17:00+9с1272100 10.8 1012332
20:00+8юв1178100 3.0 1013217
12 мая, ср
ср1223:00+7юв0183100 4.2 1014199
02:00+8ссв2271100 0.1 101066
05:00+8ссз2262100 0.1 100920
08:00+11ссз2242100 0.0 1010598
11:00+13ссв113191 0.0 10081729
14:00+15ююз223192 0.2 10052229
17:00+10ююв2161100 0.4 1007326
20:00+10ююз0159100 0.1 1007133
13 мая, чт
чт1323:00+9сз2258100 0.1 100860
02:00+8ссз33530 0.0 100830
05:00+6ссз33520 0.0 100925
08:00+10ссз23360 0.0 1009736
11:00+14ююв22271 0.0 10071861
14:00+16ю432933 0.1 10052097
17:00+15ю54392 0.2 10051441
20:00+11ююз33643 0.9 1008207